This demonstration page uses our WeatherBlox Daily Observations layout. Learn more.

Left ArrowRight Arrow

39.29038, -76.61219

Hourly Observations for January 30, 2020

Temp ( °F °C ) Dew Point ( °F °C ) Humidity (%) Winds ( mph kmh ) Pressure ( in mb ) Visibility ( mi km ) Precip ( " mm )
12:54 am 00:54 undefined 36 2.2 18 -7.8 48 48 undefined N/A 30.19 1022 N/A 0.00 0.00
1:54 am 01:54 undefined 35 1.7 17 -8.3 48 48 undefined N/A 30.19 1023 N/A 0.00 0.00
2:54 am 02:54 undefined 34 1.1 16 -8.9 48 48 undefined N/A 30.20 1023 N/A 0.00 0.00
3:54 am 03:54 undefined 33 0.6 17 -8.3 52 52 undefined N/A 30.20 1023 N/A 0.00 0.00
4:54 am 04:54 undefined 31 -0.6 16 -8.9 54 54 undefined N/A 30.20 1023 N/A 0.00 0.00
5:54 am 05:54 undefined 31 -0.6 16 -8.9 54 54 undefined N/A 30.23 1024 N/A 0.00 0.00
6:54 am 06:54 undefined 30 -1.1 15 -9.4 54 54 undefined N/A 30.26 1025 N/A 0.00 0.00
7:54 am 07:54 undefined 30 -1.1 16 -8.9 56 56 undefined N/A 30.27 1025 N/A 0.00 0.00
8:54 am 08:54 undefined 31 -0.6 16 -8.9 54 54 undefined N/A 30.31 1026 N/A 0.00 0.00
9:54 am 09:54 undefined 33 0.6 17 -8.3 52 52 undefined N/A 30.35 1028 N/A 0.00 0.00
10:54 am 10:54 undefined 36 2.2 19 -7.2 50 50 undefined N/A 30.35 1028 N/A 0.00 0.00
11:54 am 11:54 undefined 37 2.8 20 -6.7 50 50 undefined N/A 30.33 1027 N/A 0.00 0.00
12:54 pm 12:54 undefined 41 5 22 -5.6 47 47 undefined N/A 30.32 1027 N/A 0.00 0.00
1:54 pm 13:54 undefined 41 5 22 -5.6 47 47 undefined N/A 30.27 1025 N/A 0.00 0.00
2:54 pm 14:54 undefined 40 4.4 21 -6.1 47 47 undefined N/A 30.26 1025 N/A 0.00 0.00
3:54 pm 15:54 undefined 39 3.9 22 -5.6 50 50 undefined N/A 30.26 1025 N/A 0.00 0.00
4:54 pm 16:54 undefined 38 3.3 18 -7.8 44 44 undefined N/A 30.27 1025 N/A 0.00 0.00
5:54 pm 17:54 undefined 37 2.8 19 -7.2 48 48 undefined N/A 30.28 1026 N/A 0.00 0.00
6:54 pm 18:54 undefined 37 2.8 20 -6.7 50 50 undefined N/A 30.30 1026 N/A 0.00 0.00
7:54 pm 19:54 undefined 37 2.8 20 -6.7 50 50 undefined N/A 30.31 1026 N/A 0.00 0.00
8:54 pm 20:54 undefined 37 2.8 20 -6.7 50 50 undefined N/A 30.30 1026 N/A 0.00 0.00
9:54 pm 21:54 undefined 36 2.2 22 -5.6 57 57 undefined N/A 30.32 1027 N/A 0.00 0.00
10:54 pm 22:54 undefined 36 2.2 23 -5 59 59 undefined N/A 30.32 1027 N/A 0.00 0.00
11:54 pm 23:54 undefined 36 2.2 22 -5.6 57 57 undefined N/A 30.33 1027 N/A 0.00 0.00

Powered by AerisWeather